TimeCDT,TemperatureF,Dew PointF,Humidity,Sea Level PressureIn,VisibilityMPH,Wind Direction,Wind SpeedMPH,Gust SpeedMPH,PrecipitationIn,Events,Conditions,WindDirDegrees,DateUTC
12:14 AM,73.4,66.2,78,30.16,10.0,East,4.6,-,N/A,,Overcast,100,2013-07-15 05:14:00
12:53 AM,71.1,66.9,87,30.16,10.0,Calm,Calm,-,N/A,,Scattered Clouds,0,2013-07-15 05:53:00
1:53 AM,70.0,66.9,90,30.16,10.0,SE,5.8,-,N/A,,Clear,140,2013-07-15 06:53:00
2:30 AM,69.8,66.2,88,30.16,10.0,SE,8.1,-,N/A,,Mostly Cloudy,140,2013-07-15 07:30:00
2:40 AM,69.8,66.2,88,30.16,10.0,SE,8.1,-,N/A,,Scattered Clouds,140,2013-07-15 07:40:00
2:53 AM,69.1,64.9,87,30.15,10.0,SE,5.8,-,N/A,,Partly Cloudy,130,2013-07-15 07:53:00
3:53 AM,68.0,64.0,87,30.16,10.0,Calm,Calm,-,N/A,,Clear,0,2013-07-15 08:53:00
4:53 AM,66.0,64.0,93,30.16,8.0,Calm,Calm,-,N/A,,Partly Cloudy,0,2013-07-15 09:53:00
5:07 AM,66.2,62.6,88,30.16,8.0,Calm,Calm,-,N/A,,Mostly Cloudy,0,2013-07-15 10:07:00
5:53 AM,66.9,64.9,93,30.17,10.0,North,4.6,-,N/A,,Overcast,10,2013-07-15 10:53:00
6:28 AM,66.2,64.4,94,30.17,9.0,Calm,Calm,-,N/A,,Overcast,0,2013-07-15 11:28:00
6:53 AM,68.0,64.9,90,30.17,8.0,NE,3.5,-,N/A,,Partly Cloudy,50,2013-07-15 11:53:00
7:12 AM,68.0,64.4,88,30.17,9.0,ENE,4.6,-,N/A,,Scattered Clouds,60,2013-07-15 12:12:00
7:27 AM,68.0,64.4,88,30.18,9.0,NE,5.8,-,N/A,,Mostly Cloudy,50,2013-07-15 12:27:00
7:46 AM,68.0,64.4,88,30.18,9.0,ENE,5.8,-,N/A,,Overcast,60,2013-07-15 12:46:00
7:53 AM,69.1,64.9,87,30.17,9.0,ENE,5.8,-,N/A,,Overcast,60,2013-07-15 12:53:00
8:00 AM,69.8,64.4,83,30.18,9.0,NE,4.6,-,N/A,,Overcast,50,2013-07-15 13:00:00
8:29 AM,69.8,66.2,88,30.17,10.0,East,6.9,-,N/A,,Overcast,90,2013-07-15 13:29:00
8:49 AM,69.8,66.2,88,30.17,10.0,East,6.9,-,N/A,,Overcast,80,2013-07-15 13:49:00
8:53 AM,70.0,66.0,87,30.17,9.0,East,6.9,-,N/A,,Overcast,90,2013-07-15 13:53:00
9:53 AM,72.0,66.9,84,30.17,5.0,East,5.8,-,0.00,Rain,Light Rain,100,2013-07-15 14:53:00
10:13 AM,71.6,68.0,88,30.17,4.0,Calm,Calm,-,0.02,Rain,Light Rain,0,2013-07-15 15:13:00
10:26 AM,71.6,68.0,88,30.17,4.0,ESE,5.8,-,0.04,Rain,Light Rain,110,2013-07-15 15:26:00
10:53 AM,72.0,68.0,87,30.17,6.0,SE,6.9,-,0.04,Rain,Light Rain,130,2013-07-15 15:53:00
11:15 AM,71.6,68.0,88,30.17,2.5,SE,8.1,-,0.02,Rain,Light Rain,140,2013-07-15 16:15:00
11:29 AM,71.6,68.0,88,30.17,2.5,SE,5.8,-,0.03,Rain,Light Rain,140,2013-07-15 16:29:00
11:53 AM,72.0,68.0,87,30.17,2.5,SE,6.9,-,0.04,Rain,Light Rain,140,2013-07-15 16:53:00
11:57 AM,71.6,68.0,88,30.17,7.0,SE,8.1,-,0.00,,Overcast,140,2013-07-15 16:57:00
12:53 PM,73.0,68.0,84,30.16,8.0,SSE,10.4,18.4,0.00,,Overcast,160,2013-07-15 17:53:00
1:53 PM,72.0,66.9,84,30.16,7.0,South,11.5,-,0.00,Rain,Light Rain,170,2013-07-15 18:53:00
2:33 PM,71.6,68.0,88,30.16,5.0,SSE,12.7,19.6,0.05,Rain,Rain,150,2013-07-15 19:33:00
2:53 PM,72.0,68.0,87,30.15,4.0,SSE,9.2,-,0.08,Rain,Light Rain,150,2013-07-15 19:53:00
3:05 PM,71.6,69.8,94,30.15,6.0,SE,10.4,-,0.01,Rain,Light Rain,140,2013-07-15 20:05:00
3:53 PM,72.0,68.0,87,30.14,8.0,SE,8.1,-,0.01,,Overcast,140,2013-07-15 20:53:00
4:53 PM,73.0,68.0,84,30.14,8.0,SSE,10.4,-,0.00,Rain,Light Rain,150,2013-07-15 21:53:00
5:53 PM,72.0,66.9,84,30.11,7.0,SE,9.2,-,0.00,Rain,Light Rain,130,2013-07-15 22:53:00
6:53 PM,71.1,68.0,90,30.08,6.0,East,4.6,-,0.03,Rain,Light Rain,100,2013-07-15 23:53:00
7:53 PM,73.0,69.1,87,30.06,5.0,ESE,10.4,-,0.00,,Scattered Clouds,110,2013-07-16 00:53:00
8:53 PM,75.0,70.0,84,30.04,7.0,SE,8.1,-,N/A,,Scattered Clouds,130,2013-07-16 01:53:00
9:53 PM,75.9,68.0,76,30.05,10.0,SSE,12.7,-,N/A,,Clear,160,2013-07-16 02:53:00
10:53 PM,75.0,66.9,76,30.06,10.0,SSE,10.4,-,N/A,,Clear,160,2013-07-16 03:53:00
11:53 PM,73.9,66.9,79,30.06,10.0,SSE,10.4,-,N/A,,Clear,160,2013-07-16 04:53:00